When you browse on this site, cookies collect data to enhance your experience and personalize the content and advertising you see.
Visit our Privacy Policy to learn more. By continuing to use the site, you agree to this use of cookies and data.
  • In France
  • List of Countries
  • For 7 days
  • Water Temperature
  • Satellite Maps
  • Weather Map
  • Weather Widgets
  • user-avatar
    Login

    Hourly Weather Mazari Sharif

    Today, 16 February, Saturday

    Time Temperature Precipitation Wind Pressure Humidity
    00:00 +2°C° 0 mm 2 mps 657 mmHg 49%
    01:00 +2°C° 0 mm 2 mps 657 mmHg 48%
    02:00 +2°C° 0 mm 2 mps 657 mmHg 47%
    03:00 +2°C° 0 mm 2 mps 657 mmHg 45%
    04:00 +2°C° 0 mm 2 mps 657 mmHg 43%
    05:00 +1°C° 0 mm 3 mps 657 mmHg 41%
    06:00 +1°C° 0 mm 3 mps 656 mmHg 39%
    07:00 +1°C° 0 mm 3 mps 656 mmHg 37%
    08:00 +3°C° 0 mm 3 mps 656 mmHg 34%
    09:00 +7°C° 0 mm 3 mps 656 mmHg 31%
    10:00 +9°C° 0 mm 3 mps 656 mmHg 28%
    11:00 +10°C° 0 mm 3 mps 656 mmHg 27%
    12:00 +11°C° 0 mm 3 mps 655 mmHg 26%
    13:00 +12°C° 0 mm 3 mps 654 mmHg 25%
    14:00 +11°C° 0 mm 3 mps 653 mmHg 27%
    15:00 +11°C° 0 mm 3 mps 653 mmHg 28%
    16:00 +11°C° 0 mm 3 mps 652 mmHg 30%
    17:00 +10°C° 0 mm 3 mps 652 mmHg 32%
    18:00 +9°C° 0 mm 3 mps 651 mmHg 35%
    19:00 +8°C° 0 mm 3 mps 651 mmHg 37%
    20:00 +8°C° 0 mm 3 mps 651 mmHg 38%
    21:00 +8°C° 0 mm 2 mps 650 mmHg 38%
    22:00 +8°C° 0 mm 2 mps 650 mmHg 38%
    23:00 +8°C° 0.2 mm 2 mps 649 mmHg 43%

    Tomorrow, 17 February, Sunday

    Time Temperature Precipitation Wind Pressure Humidity
    00:00 +7°C° 0.2 mm 2 mps 649 mmHg 47%
    01:00 +7°C° 0.2 mm 2 mps 648 mmHg 52%
    02:00 +6°C° 1.2 mm 2 mps 648 mmHg 62%
    03:00 +5°C° 1.2 mm 2 mps 648 mmHg 72%
    04:00 +4°C° 1.2 mm 2 mps 648 mmHg 82%
    05:00 +4°C° 0.7 mm 2 mps 648 mmHg 83%
    06:00 +4°C° 0.7 mm 2 mps 649 mmHg 84%
    07:00 +5°C° 0.7 mm 1 mps 650 mmHg 85%
    08:00 +4°C° 2.3 mm 2 mps 650 mmHg 86%
    09:00 +2°C° 2.3 mm 3 mps 650 mmHg 88%
    10:00 +2°C° 2.3 mm 3 mps 651 mmHg 89%
    11:00 +2°C° 1.2 mm 3 mps 651 mmHg 88%
    12:00 +2°C° 1.2 mm 3 mps 651 mmHg 87%
    13:00 +2°C° 1.2 mm 3 mps 651 mmHg 86%
    14:00 +2°C° 0.6 mm 3 mps 651 mmHg 85%
    15:00 +2°C° 0.6 mm 2 mps 652 mmHg 84%
    16:00 +3°C° 0.6 mm 1 mps 652 mmHg 82%
    17:00 +3°C° 0.1 mm 1 mps 652 mmHg 82%
    18:00 +3°C° 0.1 mm 1 mps 652 mmHg 82%
    19:00 +1°C° 0.1 mm 0 mps 653 mmHg 83%
    20:00 +2°C° 0 mm 1 mps 652 mmHg 82%
    21:00 +2°C° 0 mm 1 mps 652 mmHg 81%
    22:00 +1°C° 0 mm 2 mps 652 mmHg 80%
    23:00 +1°C° 0 mm 2 mps 652 mmHg 80%

    Day after tomorrow, 18 February, Monday

    Time Temperature Precipitation Wind Pressure Humidity
    00:00 +1°C° 0 mm 2 mps 652 mmHg 79%
    01:00 +1°C° 0 mm 2 mps 651 mmHg 79%
    02:00 +1°C° 0 mm 2 mps 651 mmHg 77%
    03:00 +1°C° 0 mm 2 mps 651 mmHg 74%
    04:00 +1°C° 0 mm 2 mps 650 mmHg 72%
    05:00 +2°C° 0.1 mm 2 mps 650 mmHg 68%
    06:00 +2°C° 0.1 mm 2 mps 651 mmHg 64%
    07:00 +2°C° 0.1 mm 2 mps 651 mmHg 61%
    08:00 +3°C° 0.1 mm 2 mps 651 mmHg 59%
    09:00 +4°C° 0.1 mm 2 mps 651 mmHg 57%
    10:00 +5°C° 0.1 mm 2 mps 652 mmHg 55%
    11:00 +4°C° 0.1 mm 3 mps 652 mmHg 58%
    12:00 +4°C° 0.1 mm 3 mps 651 mmHg 61%
    13:00 +4°C° 0.1 mm 3 mps 651 mmHg 64%
    14:00 +4°C° 0.1 mm 3 mps 651 mmHg 67%
    15:00 +4°C° 0.1 mm 2 mps 652 mmHg 70%
    16:00 +4°C° 0.1 mm 2 mps 652 mmHg 73%
    17:00 +3°C° 0.1 mm 2 mps 652 mmHg 74%
    18:00 +3°C° 0.1 mm 2 mps 653 mmHg 76%
    19:00 +3°C° 0.1 mm 1 mps 653 mmHg 77%
    20:00 +2°C° 0.1 mm 2 mps 653 mmHg 78%
    21:00 +2°C° 0.1 mm 2 mps 653 mmHg 78%
    22:00 +2°C° 0.1 mm 2 mps 653 mmHg 79%
    23:00 +2°C° 0 mm 2 mps 652 mmHg 78%

    19 February, Tuesday

    Time Temperature Precipitation Wind Pressure Humidity
    00:00 +2°C° 0 mm 2 mps 652 mmHg 77%
    01:00 +1°C° 0 mm 2 mps 652 mmHg 77%
    02:00 +1°C° 0 mm 2 mps 651 mmHg 72%
    03:00 +1°C° 0 mm 2 mps 651 mmHg 67%
    04:00 0°C° 0 mm 3 mps 650 mmHg 62%
    05:00 0°C° 0 mm 3 mps 650 mmHg 57%
    06:00 0°C° 0 mm 3 mps 650 mmHg 53%
    07:00 0°C° 0 mm 3 mps 650 mmHg 48%
    08:00 +3°C° 0 mm 2 mps 651 mmHg 46%
    09:00 +5°C° 0 mm 2 mps 651 mmHg 43%
    10:00 +7°C° 0 mm 2 mps 651 mmHg 41%
    11:00 +7°C° 0 mm 2 mps 651 mmHg 42%
    12:00 +8°C° 0 mm 2 mps 650 mmHg 43%
    13:00 +8°C° 0 mm 2 mps 650 mmHg 43%
    14:00 +8°C° 0 mm 2 mps 650 mmHg 42%
    15:00 +8°C° 0 mm 2 mps 650 mmHg 41%
    16:00 +8°C° 0 mm 2 mps 650 mmHg 40%
    17:00 +8°C° 0 mm 2 mps 650 mmHg 42%
    18:00 +7°C° 0 mm 2 mps 651 mmHg 44%
    19:00 +6°C° 0 mm 2 mps 651 mmHg 45%
    20:00 +7°C° 0.1 mm 1 mps 651 mmHg 49%
    21:00 +6°C° 0.1 mm 1 mps 651 mmHg 52%
    22:00 +6°C° 0.1 mm 1 mps 652 mmHg 56%
    23:00 +5°C° 0.1 mm 1 mps 652 mmHg 59%

    20 February, Wednesday

    Time Temperature Precipitation Wind Pressure Humidity
    00:00 +5°C° 0.1 mm 1 mps 652 mmHg 62%
    01:00 +5°C° 0.1 mm 1 mps 652 mmHg 65%
    02:00 +4°C° 0.3 mm 1 mps 652 mmHg 69%
    03:00 +3°C° 0.3 mm 2 mps 652 mmHg 73%
    04:00 +3°C° 0.3 mm 2 mps 652 mmHg 77%
    05:00 +1°C° 1 mm 3 mps 653 mmHg 82%
    06:00 +1°C° 1 mm 3 mps 653 mmHg 86%
    07:00 -1°C° 1 mm 4 mps 654 mmHg 90%
    08:00 -1°C° 0.8 mm 5 mps 654 mmHg 90%
    09:00 -3°C° 0.8 mm 6 mps 655 mmHg 90%
    10:00 -4°C° 0.8 mm 6 mps 655 mmHg 90%
    11:00 -4°C° 0.3 mm 6 mps 655 mmHg 87%
    12:00 -5°C° 0.3 mm 5 mps 655 mmHg 84%
    13:00 -5°C° 0.3 mm 5 mps 655 mmHg 82%
    14:00 -5°C° 0.2 mm 5 mps 655 mmHg 80%
    15:00 -4°C° 0.2 mm 4 mps 656 mmHg 79%
    16:00 -4°C° 0.2 mm 4 mps 656 mmHg 77%
    17:00 -4°C° 0.2 mm 4 mps 656 mmHg 77%
    18:00 -5°C° 0.2 mm 3 mps 657 mmHg 77%
    19:00 -5°C° 0.2 mm 3 mps 658 mmHg 77%
    20:00 -5°C° 0.3 mm 3 mps 658 mmHg 78%
    21:00 -5°C° 0.3 mm 3 mps 658 mmHg 79%
    22:00 -6°C° 0.3 mm 3 mps 658 mmHg 80%
    23:00 -6°C° 0.3 mm 3 mps 658 mmHg 80%

    21 February, Thursday

    Time Temperature Precipitation Wind Pressure Humidity
    00:00 -6°C° 0.3 mm 3 mps 658 mmHg 81%
    01:00 -6°C° 0.3 mm 3 mps 658 mmHg 82%
    02:00 -7°C° 0.3 mm 3 mps 657 mmHg 82%
    03:00 -6°C° 0.3 mm 2 mps 657 mmHg 83%
    04:00 -6°C° 0.3 mm 2 mps 657 mmHg 83%
    05:00 -6°C° 0.2 mm 2 mps 658 mmHg 83%
    06:00 -6°C° 0.2 mm 2 mps 658 mmHg 83%
    07:00 -6°C° 0.2 mm 2 mps 658 mmHg 83%
    08:00 -6°C° 0.2 mm 2 mps 658 mmHg 80%
    09:00 -5°C° 0.2 mm 2 mps 658 mmHg 78%
    10:00 -5°C° 0.2 mm 2 mps 658 mmHg 75%
    11:00 -4°C° 0.2 mm 2 mps 658 mmHg 73%
    12:00 -4°C° 0.2 mm 2 mps 657 mmHg 71%
    13:00 -3°C° 0.2 mm 2 mps 657 mmHg 69%
    14:00 -3°C° 0.1 mm 2 mps 657 mmHg 67%
    15:00 -3°C° 0.1 mm 2 mps 657 mmHg 66%
    16:00 -1°C° 0.1 mm 1 mps 657 mmHg 64%
    17:00 -2°C° 0 mm 1 mps 657 mmHg 65%
    18:00 -2°C° 0 mm 1 mps 657 mmHg 67%
    19:00 -3°C° 0 mm 1 mps 657 mmHg 68%
    20:00 -3°C° 0 mm 1 mps 657 mmHg 68%
    21:00 -3°C° 0 mm 1 mps 657 mmHg 68%
    22:00 -4°C° 0 mm 1 mps 657 mmHg 68%
    23:00 -4°C° 0 mm 1 mps 657 mmHg 68%
    Show more